Spearfish, SD

11:01 AM MDT on April 20, 2018 (GMT -0600)
Black Hills-Ice

Weather History for KSPF - January, 2014

Change the Weather History Date:

Saturday, January 18, 2014

  Actual Average (KEFC) Record (KEFC)
Temperature  
Mean Temperature 39 °F -  
Max Temperature 46 °F 36 °F 60 °F (1965)
Min Temperature 32 °F 11 °F -17 °F (1977)
Degree Days  
Heating Degree Days 26    
Moisture  
Dew Point 19 °F    
Average Humidity 46    
Maximum Humidity 65    
Minimum Humidity 25    
Precipitation  
Precipitation 0.00 in - - ()
Sea Level Pressure  
Sea Level Pressure 30.03 in    
Wind  
Wind Speed 21 mph (WNW)    
Max Wind Speed 31 mph    
Max Gust Speed 43 mph    
Visibility 10 miles    
Events      
Averages and records for this station are not official NWS values.
T = Trace of Precipitation, MM = Missing Value Source: NWS Daily Summary

Daily Weather History Graph

Daily Weather History Graph

Search for Another Location

Airport or City:

Astronomy

Jan. 18, 2014 Rise Set
Actual Time 8:26 AM CST 5:45 PM CST
Civil Twilight 7:54 AM CST 6:17 PM CST
Nautical Twilight 7:18 AM CST 6:53 PM CST
Astronomical Twilight 6:43 AM CST 7:28 PM CST
Moon 8:37 PM CST (1/18) 9:19 AM CST (1/18)
Length of Visible Light 10h 23m
Length of Day
9h 19m
Waning Gibbous, 94% of the Moon is Illuminated
Jan 18
Waning Gibbous
Jan 23
Last Quarter
Jan 30
New
Feb 6
First Quarter
Feb 14
Full

Hourly Weather History & Observations

Time (CST) Temp. Windchill Dew Point Humidity Pressure Visibility Wind Dir Wind Speed Gust Speed Precip Events Conditions
12:15 AM 37.4 °F 27.2 °F 23.0 °F 56% 29.95 in 10.0 mi West 19.6 mph 29.9 mph N/A   Clear
12:35 AM 39.2 °F 28.0 °F 23.0 °F 52% 29.95 in 10.0 mi West 26.5 mph 38.0 mph N/A   Clear
12:55 AM 37.4 °F 26.1 °F 23.0 °F 56% 29.94 in 10.0 mi West 24.2 mph 31.1 mph N/A   Clear
1:15 AM 37.4 °F 26.1 °F 23.0 °F 56% 29.94 in 10.0 mi West 24.2 mph 35.7 mph N/A   Clear
1:35 AM 37.4 °F 25.9 °F 23.0 °F 56% 29.95 in 10.0 mi WNW 25.3 mph 36.8 mph N/A   Partly Cloudy
1:55 AM 37.4 °F 26.4 °F 23.0 °F 56% 29.95 in 10.0 mi WNW 23.0 mph 34.5 mph N/A   Partly Cloudy
2:15 AM 37.4 °F 26.9 °F 23.0 °F 56% 29.95 in 10.0 mi West 20.7 mph 29.9 mph N/A   Partly Cloudy
2:35 AM 37.4 °F 26.6 °F 23.0 °F 56% 29.96 in 10.0 mi West 21.9 mph 38.0 mph N/A   Scattered Clouds
2:55 AM 37.4 °F 26.4 °F 23.0 °F 56% 29.98 in 10.0 mi WNW 23.0 mph 35.7 mph N/A   Mostly Cloudy
3:15 AM 37.4 °F 26.6 °F 23.0 °F 56% 29.99 in 10.0 mi West 21.9 mph 29.9 mph N/A   Overcast
3:35 AM 37.4 °F 26.4 °F 23.0 °F 56% 29.99 in 10.0 mi West 23.0 mph 39.1 mph N/A   Overcast
3:55 AM 37.4 °F 26.6 °F 23.0 °F 56% 30.00 in 10.0 mi WNW 21.9 mph 34.5 mph N/A   Overcast
4:15 AM 37.4 °F 26.4 °F 24.8 °F 60% 30.01 in 10.0 mi WNW 23.0 mph 33.4 mph N/A   Overcast
4:35 AM 35.6 °F 25.2 °F 24.8 °F 65% 30.02 in 10.0 mi WNW 18.4 mph 34.5 mph N/A   Overcast
4:55 AM 35.6 °F 22.3 °F 23.0 °F 60% 30.02 in 10.0 mi WNW 31.1 mph 42.6 mph N/A   Overcast
5:15 AM 35.6 °F 24.0 °F 23.0 °F 60% 30.04 in 10.0 mi WNW 23.0 mph 40.3 mph N/A   Scattered Clouds
5:35 AM 35.6 °F 24.0 °F 23.0 °F 60% 30.05 in 10.0 mi WNW 23.0 mph 36.8 mph N/A   Scattered Clouds
5:55 AM 33.8 °F 22.8 °F 23.0 °F 65% 30.06 in 10.0 mi WNW 18.4 mph 32.2 mph N/A   Scattered Clouds
6:15 AM 33.8 °F 23.2 °F 23.0 °F 65% 30.07 in 10.0 mi WNW 17.3 mph 31.1 mph N/A   Mostly Cloudy
6:35 AM 33.8 °F 21.3 °F 21.2 °F 60% 30.08 in 10.0 mi WNW 24.2 mph 35.7 mph N/A   Overcast
6:55 AM 32.0 °F 19.2 °F 21.2 °F 64% 30.09 in 10.0 mi WNW 23.0 mph 29.9 mph N/A   Mostly Cloudy
7:15 AM 32.0 °F 19.5 °F 21.2 °F 64% 30.09 in 10.0 mi WNW 21.9 mph 31.1 mph N/A   Mostly Cloudy
7:35 AM 32.0 °F 20.1 °F 19.4 °F 60% 30.10 in 10.0 mi WNW 19.6 mph 33.4 mph N/A   Scattered Clouds
7:55 AM 32.0 °F 20.1 °F 19.4 °F 60% 30.12 in 10.0 mi WNW 19.6 mph 27.6 mph N/A   Scattered Clouds
8:15 AM 32.0 °F 18.9 °F 19.4 °F 60% 30.12 in 10.0 mi WNW 24.2 mph - N/A   Scattered Clouds
8:35 AM 32.0 °F 19.5 °F 19.4 °F 60% 30.12 in 10.0 mi WNW 21.9 mph 29.9 mph N/A   Partly Cloudy
8:55 AM 32.0 °F 21.2 °F 19.4 °F 60% 30.13 in 10.0 mi WNW 16.1 mph 31.1 mph N/A   Clear
9:15 AM 32.0 °F 20.1 °F 19.4 °F 60% 30.14 in 10.0 mi WNW 19.6 mph 29.9 mph N/A   Clear
9:35 AM 32.0 °F 19.5 °F 19.4 °F 60% 30.15 in 10.0 mi WNW 21.9 mph 33.4 mph N/A   Clear
9:55 AM 32.0 °F 18.9 °F 19.4 °F 60% 30.16 in 10.0 mi WNW 24.2 mph 28.8 mph N/A   Clear
10:15 AM 33.8 °F 22.2 °F 19.4 °F 56% 30.16 in 10.0 mi WNW 20.7 mph 31.1 mph N/A   Clear
10:35 AM 33.8 °F 21.9 °F 17.6 °F 52% 30.16 in 10.0 mi WNW 21.9 mph 32.2 mph N/A   Clear
10:55 AM 35.6 °F 24.0 °F 17.6 °F 48% 30.16 in 10.0 mi WNW 23.0 mph 29.9 mph N/A   Clear
11:15 AM 35.6 °F 23.7 °F 17.6 °F 48% 30.16 in 10.0 mi WNW 24.2 mph 29.9 mph N/A   Clear
11:35 AM 35.6 °F 24.0 °F 17.6 °F 48% 30.15 in 10.0 mi WNW 23.0 mph 32.2 mph N/A   Clear
11:55 AM 37.4 °F 26.4 °F 17.6 °F 45% 30.14 in 10.0 mi WNW 23.0 mph 29.9 mph N/A   Clear
12:15 PM 37.4 °F 26.6 °F 15.8 °F 41% 30.13 in 10.0 mi WNW 21.9 mph 29.9 mph N/A   Clear
12:35 PM 37.4 °F 25.9 °F 15.8 °F 41% 30.13 in 10.0 mi NW 25.3 mph 35.7 mph N/A   Clear
12:55 PM 39.2 °F 28.7 °F 15.8 °F 39% 30.12 in 10.0 mi WNW 23.0 mph 31.1 mph N/A   Clear
1:15 PM 39.2 °F 29.0 °F 15.8 °F 39% 30.10 in 10.0 mi NW 21.9 mph 29.9 mph N/A   Clear
1:35 PM 41.0 °F 32.2 °F 15.8 °F 36% 30.09 in 10.0 mi WNW 18.4 mph 26.5 mph N/A   Clear
1:55 PM 41.0 °F 31.4 °F 15.8 °F 36% 30.09 in 10.0 mi West 21.9 mph 25.3 mph N/A   Clear
2:15 PM 41.0 °F 33.1 °F 14.0 °F 33% 30.09 in 10.0 mi WNW 15.0 mph 27.6 mph N/A   Clear
2:35 PM 41.0 °F 31.9 °F 14.0 °F 33% 30.08 in 10.0 mi West 19.6 mph 28.8 mph N/A   Clear
2:55 PM 42.8 °F 34.8 °F 12.2 °F 29% 30.08 in 10.0 mi West 17.3 mph 24.2 mph N/A   Clear
3:15 PM 44.6 °F 37.8 °F 12.2 °F 27% 30.08 in 10.0 mi WNW 15.0 mph 21.9 mph N/A   Clear
3:35 PM 44.6 °F 37.2 °F 10.4 °F 25% 30.07 in 10.0 mi West 17.3 mph 20.7 mph N/A   Clear
3:55 PM 44.6 °F 37.8 °F 12.2 °F 27% 30.06 in 10.0 mi West 15.0 mph 23.0 mph N/A   Clear
4:15 PM 44.6 °F 37.8 °F 14.0 °F 29% 30.07 in 10.0 mi West 15.0 mph 19.6 mph N/A   Clear
4:35 PM 44.6 °F 37.2 °F 15.8 °F 31% 30.06 in 10.0 mi West 17.3 mph 26.5 mph N/A   Clear
4:55 PM 44.6 °F 38.4 °F 15.8 °F 31% 30.04 in 10.0 mi West 12.7 mph 19.6 mph N/A   Clear
5:15 PM 42.8 °F 37.5 °F 17.6 °F 36% 30.03 in 10.0 mi West 9.2 mph - N/A   Clear
5:35 PM 41.0 °F 33.9 °F 17.6 °F 39% 30.02 in 10.0 mi West 12.7 mph - N/A   Clear
5:55 PM 41.0 °F 33.5 °F 17.6 °F 39% 30.01 in 10.0 mi West 13.8 mph 17.3 mph N/A   Clear
6:15 PM 39.2 °F 32.5 °F 17.6 °F 42% 30.01 in 10.0 mi West 10.4 mph - N/A   Clear
6:35 PM 39.2 °F 31.6 °F 17.6 °F 42% 30.00 in 10.0 mi West 12.7 mph - N/A   Clear
6:55 PM 39.2 °F 30.8 °F 17.6 °F 42% 29.99 in 10.0 mi West 15.0 mph 20.7 mph N/A   Clear
7:15 PM 39.2 °F 30.8 °F 19.4 °F 45% 29.98 in 10.0 mi West 15.0 mph 21.9 mph N/A   Clear
7:35 PM 41.0 °F 33.5 °F 19.4 °F 42% 29.97 in 10.0 mi West 13.8 mph 19.6 mph N/A   Clear
7:55 PM 39.2 °F 31.6 °F 19.4 °F 45% 29.96 in 10.0 mi West 12.7 mph - N/A   Clear
8:15 PM 42.8 °F 35.4 °F 17.6 °F 36% 29.95 in 10.0 mi WSW 15.0 mph 24.2 mph N/A   Clear
8:35 PM 44.6 °F 38.1 °F 15.8 °F 31% 29.94 in 10.0 mi West 13.8 mph 20.7 mph N/A   Clear
8:55 PM 42.8 °F 35.4 °F 15.8 °F 34% 29.93 in 10.0 mi West 15.0 mph 21.9 mph N/A   Clear
9:15 PM 44.6 °F 36.9 °F 15.8 °F 31% 29.91 in 10.0 mi West 18.4 mph 25.3 mph N/A   Clear
9:35 PM 44.6 °F 37.2 °F 17.6 °F 34% 29.91 in 10.0 mi West 17.3 mph 21.9 mph N/A   Clear
9:55 PM 44.6 °F 37.2 °F 17.6 °F 34% 29.91 in 10.0 mi WSW 17.3 mph 26.5 mph N/A   Clear
10:15 PM 44.6 °F 37.2 °F 17.6 °F 34% 29.92 in 10.0 mi West 17.3 mph 20.7 mph N/A   Clear
10:35 PM 44.6 °F 37.4 °F 17.6 °F 34% 29.91 in 10.0 mi West 16.1 mph - N/A   Clear
10:55 PM 44.6 °F 37.4 °F 17.6 °F 34% 29.91 in 10.0 mi West 16.1 mph 24.2 mph N/A   Clear
11:15 PM 46.4 °F 39.5 °F 17.6 °F 32% 29.91 in 10.0 mi West 17.3 mph 26.5 mph N/A   Clear
11:35 PM 46.4 °F 39.2 °F 17.6 °F 32% 29.91 in 10.0 mi West 18.4 mph 31.1 mph N/A   Clear
11:55 PM 46.4 °F 39.2 °F 17.6 °F 32% 29.90 in 10.0 mi West 18.4 mph 27.6 mph N/A   Clear